Starlink 32223

operational
NORAD ID: 60373 Int'l Des: 2024-138 Owner: SPXS Country: US Constellation: starlink
LEOCIRCULAR

About Starlink 32223

Description loading...

Live Position

Loading 3D Globe...

Upcoming Passes

Altitude History

Altitude vs Time

uPlot chart will show altitude changes over time

Two-Line Element Set

1 60373U 24138U 25353.20312946 .00008091 00000-0 28508-3 0 9996
2 60373 53.1603 323.5319 0002194 90.3800 269.7452 15.30193465 78200
Epoch: Dec 19, 2025 • Age: 11 hours

Current Status

Altitude 479.9 km
Velocity 7.63 km/s
Sub-Earth Point 51.59°N, 98.41°E
Launch Date Aug 4, 2024
Age 1.3 years
Type internet

Technical Details

Classification Payload
Mass 730.00 kg
Dry Mass 700.00 kg
Total Mass 730.00 kg
Length 0.30 m
Diameter 4.10 m
Span 29.00 m
Shape Box + pan
Manufacturer SPXS
Bus Type Starlink V2M
Phase Status In Orbit
Owner/State SPXS/US

Large Constellations

Loading constellations...